Miscellaneous Local Product
Issued by NWS Hastings, NE

Home | Current Version | Previous Version | Graphics & Text | Print | Product List | Glossary On
Versions: 1 2 3 4 5 6 7 8 9 10 11 12 13 14 15 16 17 18 19 20 21 22 23 24 25 26 27 28 29 30 31 32 33 34 35 36 37 38 39 40 41 42 43 44 45 46 47 48 49 50
000
AXUS43 KGID 221702
MISGRI

GID CWA HOURLY WEATHER ROUNDUP
NATIONAL WEATHER SERVICE HASTINGS NE
1200 PM CDT TUE AUG 22 2017

NOTE: "FAIR" INDICATES FEW OR NO CLOUDS BELOW 12,000 FEET WITH NO
SIGNIFICANT WEATHER AND/OR OBSTRUCTIONS TO VISIBILITY.

...SOUTH CENTRAL NEBRASKA...

CITY           SKY/WX    TMP DP  RH WIND       PRES   REMARKS
GRAND ISLAND   SUNNY     73  51  46 NE10      30.25S
HASTINGS       SUNNY     72  51  47 NE9       30.26S
KEARNEY        SUNNY     70  51  51 NE6       30.27R
ORD            SUNNY     73  45  36 NE9       30.24F
YORK           SUNNY     72  52  49 NE10      30.24R
AURORA         SUNNY     71  50  48 N7        30.25R
LEXINGTON      SUNNY     72  51  48 E5        30.29R
HOLDREGE       SUNNY     69  53  54 NE8       30.28R
HEBRON         SUNNY     76  54  45 NE10G16   30.21S

...NEBRASKA PANHANDLE...

CITY           SKY/WX    TMP DP  RH WIND       PRES   REMARKS
CHADRON        SUNNY     76  43  30 S13G21    30.25F
ALLIANCE       SUNNY     72  44  36 S14       30.30F
SCOTTSBLUFF    SUNNY     76  49  38 SE17      30.29S
SIDNEY         SUNNY     72  46  39 S14       30.34F

...WESTERN AND NORTH CENTRAL NEBRASKA...

CITY           SKY/WX    TMP DP  RH WIND       PRES   REMARKS
VALENTINE      SUNNY     74  42  31 SW6       30.27S
AINSWORTH      SUNNY     70  45  40 S3        30.28S
ONEILL         SUNNY     70  49  47 N8        30.26S
BROKEN BOW     SUNNY     73  47  39 NE3       30.27S
IMPERIAL       SUNNY     74  45  35 E7        30.31S
NORTH PLATTE   SUNNY     74  54  49 SE7       30.29S
MCCOOK         SUNNY     73  54  51 VRB6      30.29R

...EASTERN NEBRASKA...

CITY           SKY/WX    TMP DP  RH WIND       PRES   REMARKS
NORFOLK        SUNNY     71  48  43 N14       30.21R
SO SIOUX CITY  SUNNY     71  55  56 NW10      30.18S
TEKAMAH        SUNNY     73  51  46 N10       30.19R
COLUMBUS       SUNNY     71  54  54 N8        30.23S
ALBION         SUNNY     72  52  49 NE5       30.25R
OMAHA EPPLEY   MOSUNNY   74  48  39 N13       30.18R
OFFUTT AFB     SUNNY     73  48  40 N9        30.18R
MILLARD        SUNNY     74  47  38 N6G17     30.19S
LINCOLN        SUNNY     74  52  46 N12       30.21S
NEBRASKA CITY  SUNNY     73  55  52 N9        30.18R
BEATRICE       SUNNY     74  57  56 N8G17     30.20S
FALLS CITY     MOSUNNY   75  64  68 N12       30.15S

...NORTHERN KANSAS...

CITY           SKY/WX    TMP DP  RH WIND       PRES   REMARKS
GOODLAND       CLOUDY    68  60  75 E6        30.32F
HILL CITY      SUNNY     78  59  51 NE13      30.26R
NORTON         SUNNY     77  48  36 NE8       30.26S
PHILLIPSBURG   SUNNY     79  52  38 NE12      30.24S
SMITH CENTER   MOSUNNY   75  54  46 NE12      30.23S
HAYS           MOSUNNY   77  61  57 E22       30.21R
RUSSELL        SUNNY     79  59  50 NE18G28   30.19S
CONCORDIA      SUNNY     78  59  51 NE12      30.20S
SALINA         MOSUNNY   81  62  52 NE17      30.17R
TOPEKA         MOSUNNY   78  69  73 N12       30.14R



USA.gov is the U.S. government's official web portal to all federal, state and local government web resources and services.